This is the latest recevied weather packets stored in our database for station/object CE3MXM-13. If no packets are shown the sender has not sent any weather packets the latest 10 day(s).
| Time | Temp. | Humidity | Pressure | Rain* | Wind** | Luminosity | Snow |
|---|---|---|---|---|---|---|---|
| 1777813144 | 8.33° C | 98% | 1013.1 hPa | - | - | - | - |
| 1777812844 | 7.78° C | 98% | 1013 hPa | - | - | - | - |
| 1777812544 | 7.78° C | 98% | 1013 hPa | - | - | - | - |
| 1777812244 | 7.22° C | 98% | 1012.8 hPa | - | - | - | - |
| 1777811944 | 6.67° C | 98% | 1012.8 hPa | - | - | - | - |
| 1777811644 | 6.67° C | 98% | 1012.7 hPa | - | - | - | - |
| 1777811343 | 6.11° C | 98% | 1012.7 hPa | - | - | - | - |
| 1777811043 | 6.11° C | 98% | 1012.6 hPa | - | - | - | - |
| 1777810744 | 6.11° C | 98% | 1012.7 hPa | - | - | - | - |
| 1777810444 | 5.56° C | 98% | 1012.5 hPa | - | - | - | - |
| 1777810143 | 5.56° C | 98% | 1012.7 hPa | - | - | - | - |
| 1777809843 | 5.56° C | 97% | 1012.8 hPa | - | - | - | - |
| 1777809543 | 5° C | 97% | 1012.4 hPa | - | - | - | - |
| 1777809243 | 5° C | 97% | 1012.6 hPa | - | - | - | - |
| 1777808943 | 5° C | 97% | 1012.3 hPa | - | - | - | - |
| 1777808642 | 5° C | 97% | 1012.4 hPa | - | - | - | - |
| 1777808343 | 5° C | 97% | 1012.3 hPa | - | - | - | - |
| 1777808042 | 5° C | 97% | 1012.2 hPa | - | - | - | - |
| 1777807742 | 4.44° C | 97% | 1012.2 hPa | - | - | - | - |
| 1777807442 | 5° C | 97% | 1012 hPa | - | - | - | - |
| 1777807142 | 5° C | 97% | 1012.1 hPa | - | - | - | - |
| 1777806842 | 5° C | 97% | 1011.5 hPa | - | - | - | - |
| 1777806542 | 5° C | 97% | 1011.7 hPa | - | - | - | - |
| 1777806242 | 5° C | 97% | 1011.9 hPa | - | - | - | - |
| 1777805941 | 5° C | 97% | 1011.6 hPa | - | - | - | - |
* Rain since midnight (hover to see other rain measurements)
** Current wind speed in m/s (hover to see current wind gust speed)